"startDT [UTC]","vpos","CH4 [ppm]","stdev(CH4) [ppm]","CO2 [ppm]","stdev(CO2) [ppm]","H2O [ppm]","stdev(H2O)","p_LGR [torr]","T_LGR [C]","mt1_LGR [us]","mt2_LGR [us]","T_ECpre [C]","T_EC1 [C]","T_EC2 [C]","p_inlet [hPa]","p_in [hPa]","p_out [hPa]","T_inlet [C]","RH_inlet [%]","dwpt_inlet [C]","T_vent [C]","RH_vent [%]","dwpt_vent [C]","flow_vent [l min-1]","flow_inlet [l min-1]","dwpt_sample [C]","T_room [C]"
2012-05-08 00:00:00,0.0,1.8860,0.0011,406.52,0.39,391.7,40.3,138.11,28.64,24.62,36.37,0.04,-272.74,-272.74,-55,561,-923,23.7,22.3,0.9,23.7,23.4,1.6,5.73,2.30,-21.9,27.1
2012-05-08 00:01:00,0.0,1.8861,0.0010,406.53,0.36,383.9,40.4,138.11,28.63,24.62,36.39,0.04,-272.74,-272.74,-56,561,-923,23.7,22.4,1.0,23.7,23.5,1.6,5.73,2.37,-22.0,27.0
2012-05-08 00:02:00,0.0,1.8861,0.0010,406.47,0.39,374.5,43.9,138.12,28.63,24.62,36.38,0.04,-272.74,-272.74,-55,561,-923,23.7,22.5,1.0,23.7,23.6,1.7,5.73,2.30,-22.0,26.9
2012-05-08 00:03:00,0.0,1.8859,0.0010,406.45,0.40,375.2,39.1,138.12,28.62,24.62,36.38,0.04,-272.74,-272.74,-56,561,-923,23.7,22.6,1.1,23.7,23.7,1.7,5.73,2.36,-22.1,26.7
2012-05-08 00:04:00,0.0,1.8861,0.0011,406.45,0.34,362.0,41.5,138.12,28.61,24.62,36.38,0.04,-272.74,-272.74,-56,561,-923,23.7,22.6,1.1,23.7,23.7,1.7,5.73,2.31,-22.1,26.8
2012-05-08 00:05:00,0.0,1.8854,0.0009,406.57,0.33,368.9,43.6,138.12,28.60,24.62,36.37,0.04,-272.74,-272.74,-56,561,-923,23.7,22.6,1.1,23.6,23.7,1.7,5.73,2.34,-22.2,26.7
2012-05-08 00:06:00,0.0,1.8854,0.0009,406.46,0.40,350.7,43.3,138.12,28.58,24.62,36.38,0.04,-272.74,-272.74,-56,561,-924,23.7,22.7,1.1,23.6,23.8,1.7,5.73,2.33,-22.2,26.5
2012-05-08 00:07:00,0.0,1.8847,0.0011,406.40,0.35,354.8,37.0,138.12,28.57,24.62,36.38,0.04,-272.74,-272.74,-56,561,-923,23.7,22.8,1.2,23.6,23.9,1.8,5.73,2.32,-22.2,26.5
2012-05-08 00:08:00,0.0,1.8848,0.0011,406.52,0.29,350.5,33.1,138.12,28.56,24.62,36.37,0.04,-272.74,-272.74,-56,561,-923,23.6,22.8,1.2,23.6,24.0,1.8,5.73,2.36,-22.3,26.4
2012-05-08 00:09:00,0.0,1.8849,0.0009,406.40,0.38,343.8,39.3,138.13,28.55,24.62,36.38,0.04,-272.74,-272.74,-56,561,-923,23.6,22.7,1.1,23.6,23.8,1.7,5.73,2.29,-22.3,26.4
2012-05-08 00:10:00,0.0,1.8846,0.0011,406.39,0.37,330.8,39.9,138.13,28.54,24.62,36.38,0.04,-272.74,-272.74,-56,561,-923,23.6,22.8,1.1,23.6,23.9,1.7,5.73,2.39,-22.3,26.3
2012-05-08 00:11:00,0.0,1.8840,0.0008,406.46,0.34,332.4,30.8,138.13,28.53,24.62,36.38,0.04,-272.74,-272.74,-56,561,-923,23.6,22.9,1.2,23.5,24.0,1.8,5.73,2.31,-22.4,26.9
2012-05-08 00:12:00,0.0,1.8843,0.0010,406.48,0.39,339.0,34.9,138.13,28.52,24.62,36.38,0.04,-272.74,-272.74,-56,560,-923,23.6,23.0,1.2,23.5,24.1,1.8,5.73,2.28,-22.3,27.4
2012-05-08 00:13:00,0.0,1.8845,0.0009,406.39,0.39,349.8,41.8,138.12,28.52,24.62,36.38,0.04,-272.74,-272.74,-56,561,-923,23.6,23.1,1.3,23.5,24.2,1.9,5.73,2.35,-22.3,27.7
2012-05-08 00:14:00,0.0,1.8847,0.0011,406.39,0.37,352.5,39.9,138.12,28.52,24.62,36.38,0.04,-272.74,-272.74,-56,561,-923,23.5,23.2,1.3,23.6,24.3,2.0,5.73,2.36,-22.2,28.0
2012-05-08 00:15:00,0.0,1.8846,0.0012,406.37,0.36,362.9,40.1,138.11,28.52,24.62,36.38,0.04,-272.74,-272.74,-56,561,-923,23.6,23.0,1.2,23.6,24.1,1.9,5.73,2.35,-22.2,28.1
2012-05-08 00:16:00,0.0,1.8851,0.0011,406.26,0.46,375.0,35.6,138.11,28.53,24.62,36.39,0.04,-272.74,-272.74,-56,560,-922,23.6,22.7,1.1,23.6,23.8,1.7,5.73,2.34,-22.1,28.3
2012-05-08 00:17:00,0.0,1.8857,0.0009,406.45,0.43,392.1,44.7,138.11,28.54,24.62,36.38,0.04,-272.74,-272.74,-56,560,-923,23.6,22.8,1.1,23.6,23.9,1.8,5.73,2.33,-22.0,28.3
2012-05-08 00:18:00,0.0,1.8866,0.0008,406.55,0.36,384.3,48.4,138.11,28.55,24.62,36.38,0.04,-272.74,-272.74,-56,560,-923,23.6,22.9,1.2,23.7,24.0,1.9,5.73,2.32,-21.9,28.5
2012-05-08 00:19:00,0.0,1.8869,0.0011,406.77,0.48,397.6,39.4,138.10,28.56,24.62,36.37,0.04,-272.74,-272.74,-56,561,-923,23.6,22.9,1.2,23.7,24.0,1.9,5.73,2.30,-21.8,28.5
2012-05-08 00:20:00,0.0,1.8871,0.0010,406.67,0.40,402.1,39.9,138.10,28.57,24.62,36.38,0.04,-272.74,-272.74,-55,560,-923,23.6,22.9,1.2,23.7,24.0,1.9,5.73,2.30,-21.8,28.6
2012-05-08 00:21:00,0.0,1.8874,0.0011,406.72,0.39,401.8,35.2,138.10,28.59,24.62,36.38,0.04,-272.74,-272.74,-55,561,-922,23.7,22.9,1.2,23.7,23.9,1.9,5.73,2.30,-21.7,28.7
2012-05-08 00:22:00,0.0,1.8870,0.0010,406.89,0.41,421.2,40.6,138.10,28.60,24.62,36.38,0.04,-272.74,-272.74,-55,561,-923,23.7,22.9,1.3,23.8,24.0,2.0,5.73,2.36,-21.7,28.5
2012-05-08 00:23:00,0.0,1.8874,0.0009,406.78,0.41,418.1,43.0,138.10,28.62,24.62,36.39,0.04,-272.74,-272.74,-56,561,-923,23.7,22.9,1.3,23.8,24.0,2.0,5.73,2.38,-21.6,27.9
2012-05-08 00:24:00,0.0,1.8871,0.0011,406.80,0.39,409.0,37.8,138.10,28.63,24.62,36.38,0.04,-272.74,-272.74,-55,561,-923,23.7,22.9,1.3,23.8,24.0,2.0,5.73,2.23,-21.7,27.7
2012-05-08 00:25:00,0.0,1.8869,0.0008,406.81,0.38,405.1,35.2,138.10,28.63,24.62,36.38,0.04,-272.74,-272.74,-56,561,-923,23.7,23.0,1.4,23.8,24.1,2.1,5.73,2.43,-21.7,27.5
2012-05-08 00:26:00,0.0,1.8874,0.0011,406.76,0.36,405.4,35.5,138.11,28.63,24.62,36.38,0.04,-272.74,-272.74,-55,561,-923,23.7,23.0,1.4,23.8,24.1,2.1,5.73,2.23,-21.8,27.4
2012-05-08 00:27:00,0.0,1.8877,0.0009,406.84,0.36,394.3,38.2,138.11,28.63,24.62,36.39,0.04,-272.74,-272.74,-56,561,-924,23.7,23.0,1.4,23.8,24.2,2.1,5.73,2.43,-21.8,27.2
2012-05-08 00:28:00,0.0,1.8877,0.0010,406.88,0.36,395.1,41.4,138.11,28.63,24.62,36.38,0.04,-272.74,-272.74,-56,561,-923,23.7,23.1,1.4,23.7,24.3,2.1,5.73,2.23,-21.9,27.1
2012-05-08 00:29:00,0.0,1.8869,0.0009,406.85,0.39,382.0,41.6,138.11,28.62,24.63,36.38,0.04,-272.74,-272.74,-56,561,-924,23.7,23.2,1.5,23.7,24.4,2.2,5.73,2.44,-21.9,27.0
2012-05-08 00:30:00,0.0,1.8872,0.0009,406.72,0.34,389.8,41.1,138.12,28.62,24.62,36.38,0.04,-272.74,-272.74,-56,562,-924,23.7,23.3,1.5,23.7,24.4,2.1,5.73,2.22,-22.0,26.8
2012-05-08 00:31:00,0.0,1.8874,0.0012,406.83,0.36,374.7,42.3,138.12,28.61,24.62,36.37,0.04,-272.74,-272.74,-56,561,-924,23.7,23.2,1.5,23.7,24.4,2.1,5.73,2.45,-22.1,26.8
2012-05-08 00:32:00,0.0,1.8867,0.0012,406.74,0.37,359.7,41.7,138.12,28.60,24.62,36.38,0.04,-272.74,-272.74,-56,561,-924,23.7,23.3,1.5,23.7,24.4,2.1,5.73,2.22,-22.1,26.7
2012-05-08 00:33:00,0.0,1.8867,0.0011,406.78,0.35,359.7,38.9,138.12,28.59,24.62,36.38,0.04,-272.74,-272.74,-56,561,-924,23.7,23.3,1.5,23.6,24.5,2.2,5.73,2.45,-22.1,26.6
2012-05-08 00:34:00,0.0,1.8859,0.0010,406.71,0.31,361.3,40.6,138.12,28.58,24.62,36.38,0.04,-272.74,-272.74,-56,561,-924,23.7,23.4,1.5,23.6,24.5,2.2,5.73,2.23,-22.2,26.5
2012-05-08 00:35:00,0.0,1.8860,0.0010,406.76,0.34,344.3,44.6,138.12,28.57,24.62,36.38,0.04,-272.74,-272.74,-56,561,-924,23.7,23.4,1.5,23.6,24.5,2.2,5.73,2.43,-22.2,26.5
2012-05-08 00:36:00,0.0,1.8853,0.0011,406.86,0.31,342.3,34.1,138.13,28.56,24.62,36.38,0.04,-272.74,-272.74,-56,561,-924,23.6,23.3,1.5,23.6,24.5,2.1,5.73,2.25,-22.3,26.5
2012-05-08 00:37:00,0.0,1.8845,0.0010,406.61,0.32,342.7,38.3,138.13,28.55,24.62,36.37,0.04,-272.74,-272.74,-56,561,-924,23.6,23.4,1.5,23.6,24.6,2.2,5.73,2.41,-22.3,26.4
2012-05-08 00:38:00,0.0,1.8846,0.0012,406.57,0.37,337.4,41.1,138.13,28.54,24.62,36.38,0.04,-272.74,-272.74,-56,561,-924,23.6,23.4,1.5,23.6,24.6,2.1,5.73,2.28,-22.3,26.4
2012-05-08 00:39:00,0.0,1.8852,0.0011,406.69,0.40,329.2,39.6,138.13,28.52,24.62,36.37,0.04,-272.74,-272.74,-56,561,-924,23.6,23.4,1.5,23.5,24.6,2.1,5.73,2.41,-22.4,27.0
2012-05-08 00:40:00,0.0,1.8855,0.0012,406.81,0.43,341.3,45.8,138.13,28.52,24.62,36.37,0.04,-272.74,-272.74,-56,561,-923,23.6,23.5,1.5,23.5,24.6,2.2,5.73,2.27,-22.3,27.5
2012-05-08 00:41:00,0.0,1.8862,0.0012,406.83,0.38,342.5,43.1,138.12,28.51,24.62,36.38,0.04,-272.74,-272.74,-56,561,-924,23.6,23.5,1.5,23.6,24.6,2.2,5.73,2.31,-22.3,27.8
2012-05-08 00:42:00,0.0,1.8873,0.0009,407.04,0.34,349.8,39.8,138.12,28.51,24.62,36.37,0.04,-272.74,-272.74,-56,561,-924,23.6,23.5,1.5,23.6,24.6,2.2,5.73,2.34,-22.2,28.0
2012-05-08 00:43:00,0.0,1.8877,0.0011,406.87,0.40,367.9,45.2,138.11,28.51,24.62,36.38,0.04,-272.74,-272.74,-56,561,-924,23.6,23.5,1.5,23.6,24.6,2.2,5.73,2.36,-22.1,28.1
2012-05-08 00:44:00,0.0,1.8882,0.0010,406.93,0.33,376.7,39.5,138.11,28.52,24.62,36.39,0.04,-272.74,-272.74,-56,561,-923,23.6,23.5,1.5,23.6,24.6,2.2,5.73,2.35,-22.1,28.3
2012-05-08 00:45:00,0.0,1.8886,0.0011,407.03,0.32,382.2,38.6,138.11,28.53,24.62,36.38,0.04,-272.74,-272.74,-56,561,-923,23.6,23.4,1.5,23.6,24.5,2.2,5.73,2.35,-22.0,28.4
2012-05-08 00:46:00,0.0,1.8892,0.0009,407.17,0.39,384.2,35.3,138.11,28.54,24.62,36.38,0.04,-272.74,-272.74,-56,560,-923,23.6,23.4,1.5,23.7,24.5,2.2,5.73,2.34,-21.9,28.5
2012-05-08 00:47:00,0.0,1.8891,0.0011,407.07,0.35,393.6,37.4,138.10,28.55,24.62,36.39,0.04,-272.74,-272.74,-56,560,-923,23.6,23.3,1.4,23.7,24.4,2.2,5.73,2.33,-21.9,28.6
2012-05-08 00:48:00,0.0,1.8895,0.0011,407.25,0.33,401.4,41.0,138.10,28.57,24.62,36.39,0.04,-272.74,-272.74,-56,560,-923,23.6,23.4,1.5,23.7,24.4,2.2,5.73,2.31,-21.8,28.7
2012-05-08 00:49:00,0.0,1.8900,0.0009,407.25,0.34,414.6,38.3,138.10,28.58,24.62,36.39,0.04,-272.74,-272.74,-56,561,-923,23.7,23.3,1.5,23.7,24.4,2.2,5.73,2.28,-21.7,28.7
2012-05-08 00:50:00,0.0,1.8900,0.0008,407.30,0.40,406.9,47.1,138.10,28.60,24.62,36.38,0.04,-272.74,-272.74,-55,560,-924,23.7,23.3,1.5,23.8,24.4,2.2,5.73,2.31,-21.7,28.6
2012-05-08 00:51:00,0.0,1.8903,0.0009,407.32,0.35,417.1,35.8,138.10,28.61,24.62,36.38,0.04,-272.74,-272.74,-55,561,-924,23.7,23.2,1.5,23.8,24.4,2.2,5.73,2.42,-21.6,28.1
2012-05-08 00:52:00,0.0,1.8900,0.0010,407.24,0.38,421.4,33.7,138.10,28.62,24.62,36.39,0.04,-272.74,-272.74,-56,561,-924,23.7,23.2,1.5,23.8,24.3,2.2,5.73,2.25,-21.7,27.7
2012-05-08 00:53:00,0.0,1.8901,0.0011,407.24,0.32,411.2,42.0,138.10,28.62,24.62,36.39,0.04,-272.74,-272.74,-55,561,-924,23.7,23.2,1.5,23.8,24.3,2.2,5.73,2.40,-21.7,27.4
2012-05-08 00:54:00,0.0,1.8900,0.0009,407.33,0.39,401.4,39.1,138.11,28.62,24.62,36.38,0.04,-272.74,-272.74,-56,561,-924,23.7,23.2,1.5,23.8,24.4,2.2,5.73,2.27,-21.8,27.4
2012-05-08 00:55:00,0.0,1.8901,0.0010,407.40,0.33,403.6,45.8,138.11,28.62,24.62,36.37,0.04,-272.74,-272.74,-56,561,-924,23.7,23.2,1.5,23.7,24.4,2.2,5.73,2.40,-21.8,27.1
2012-05-08 00:56:00,0.0,1.8902,0.0010,407.34,0.35,389.3,38.3,138.11,28.62,24.62,36.38,0.04,-272.74,-272.74,-56,561,-924,23.7,23.1,1.4,23.7,24.3,2.1,5.73,2.27,-21.9,27.1
2012-05-08 00:57:00,0.0,1.8901,0.0011,407.43,0.36,386.0,43.3,138.11,28.61,24.62,36.38,0.04,-272.74,-272.74,-56,561,-924,23.7,23.0,1.3,23.7,24.1,2.0,5.73,2.42,-22.0,27.0
2012-05-08 00:58:00,0.0,1.8895,0.0009,407.41,0.38,383.8,37.1,138.12,28.61,24.63,36.38,0.04,-272.74,-272.74,-56,562,-924,23.7,22.9,1.3,23.7,24.0,1.9,5.73,2.24,-22.0,27.0
2012-05-08 00:59:00,0.0,1.8891,0.0010,407.34,0.31,376.8,35.0,138.12,28.60,24.62,36.38,0.04,-272.74,-272.74,-56,561,-924,23.7,23.0,1.3,23.7,24.1,1.9,5.73,2.44,-22.0,26.8
2012-05-08 01:00:00,0.0,1.8888,0.0010,407.23,0.38,359.2,39.4,138.12,28.59,24.62,36.38,0.04,-272.74,-272.74,-56,561,-924,23.7,23.0,1.3,23.7,24.1,2.0,5.73,2.22,-22.1,26.7
2012-05-08 01:01:00,0.0,1.8883,0.0010,407.32,0.35,364.7,35.5,138.12,28.58,24.62,36.38,0.04,-272.74,-272.74,-56,561,-924,23.6,23.0,1.3,23.6,24.1,1.9,5.73,2.45,-22.2,26.6
2012-05-08 01:02:00,0.0,1.8882,0.0010,407.38,0.35,342.4,42.6,138.12,28.57,24.62,36.38,0.04,-272.74,-272.74,-56,561,-924,23.6,23.0,1.3,23.6,24.1,1.9,5.73,2.24,-22.2,26.5
2012-05-08 01:03:00,0.0,1.8875,0.0011,407.40,0.40,347.0,35.0,138.13,28.55,24.62,36.37,0.04,-272.74,-272.74,-56,561,-924,23.6,23.1,1.3,23.6,24.2,2.0,5.73,2.43,-22.2,26.5
2012-05-08 01:04:00,0.0,1.8875,0.0012,407.24,0.39,341.7,38.2,138.13,28.54,24.62,36.38,0.04,-272.74,-272.74,-57,561,-924,23.6,23.1,1.3,23.6,24.2,2.0,5.73,2.27,-22.3,26.4
2012-05-08 01:05:00,0.0,1.8864,0.0009,407.58,0.37,335.2,37.3,138.13,28.53,24.62,36.37,0.04,-272.74,-272.74,-56,561,-925,23.6,23.1,1.3,23.5,24.2,1.9,5.73,2.37,-22.3,26.3
2012-05-08 01:06:00,0.0,1.8862,0.0009,407.23,0.43,330.2,44.0,138.13,28.52,24.62,36.38,0.04,-272.74,-272.74,-56,561,-924,23.6,23.1,1.3,23.5,24.2,1.9,5.73,2.32,-22.4,26.5
2012-05-08 01:07:00,0.0,1.8862,0.0012,407.36,0.38,333.0,41.1,138.13,28.51,24.62,36.37,0.04,-272.74,-272.74,-56,561,-925,23.6,23.2,1.3,23.5,24.3,2.0,5.73,2.38,-22.4,27.1
2012-05-08 01:08:00,0.0,1.8863,0.0011,407.44,0.32,334.6,38.8,138.13,28.50,24.62,36.36,0.04,-272.74,-272.74,-56,560,-924,23.5,23.3,1.4,23.5,24.4,2.0,5.73,2.27,-22.3,27.5
2012-05-08 01:09:00,0.0,1.8873,0.0010,407.41,0.35,342.7,34.6,138.12,28.50,24.62,36.38,0.04,-272.74,-272.74,-56,560,-924,23.5,23.3,1.4,23.5,24.5,2.0,5.73,2.32,-22.2,27.8
2012-05-08 01:10:00,0.0,1.8872,0.0009,407.36,0.34,352.3,38.6,138.12,28.50,24.62,36.38,0.04,-272.74,-272.74,-56,561,-924,23.5,23.3,1.4,23.5,24.4,2.0,5.73,2.35,-22.2,28.0
2012-05-08 01:11:00,0.0,1.8880,0.0012,407.39,0.36,357.4,39.9,138.12,28.50,24.62,36.38,0.04,-272.74,-272.74,-56,560,-924,23.5,23.4,1.4,23.6,24.5,2.1,5.73,2.36,-22.1,28.2
2012-05-08 01:12:00,0.0,1.8884,0.0011,407.45,0.32,368.6,43.3,138.11,28.51,24.62,36.38,0.04,-272.74,-272.74,-56,560,-924,23.5,23.3,1.4,23.6,24.4,2.1,5.73,2.36,-22.1,28.3
2012-05-08 01:13:00,0.0,1.8893,0.0011,407.48,0.40,379.4,39.5,138.11,28.52,24.62,36.38,0.04,-272.74,-272.74,-56,560,-924,23.6,23.4,1.4,23.6,24.5,2.1,5.73,2.35,-22.0,28.4
2012-05-08 01:14:00,0.0,1.8894,0.0011,407.43,0.40,382.9,36.4,138.11,28.53,24.62,36.38,0.04,-272.74,-272.74,-56,560,-924,23.6,23.4,1.5,23.6,24.5,2.2,5.73,2.33,-21.9,28.4
2012-05-08 01:15:00,0.0,1.8900,0.0011,407.48,0.37,391.1,43.4,138.10,28.54,24.62,36.38,0.04,-272.74,-272.74,-55,560,-924,23.6,23.5,1.5,23.7,24.6,2.2,5.73,2.32,-21.8,28.6
2012-05-08 01:16:00,0.0,1.8899,0.0010,407.42,0.32,410.5,37.8,138.10,28.55,24.62,36.38,0.04,-272.74,-272.74,-55,561,-924,23.6,23.4,1.5,23.7,24.5,2.2,5.73,2.30,-21.8,28.6
2012-05-08 01:17:00,0.0,1.8901,0.0011,407.53,0.31,412.5,36.2,138.10,28.57,24.62,36.39,0.04,-272.73,-272.74,-55,560,-924,23.6,23.4,1.5,23.7,24.5,2.2,5.73,2.29,-21.7,28.7
2012-05-08 01:18:00,0.0,1.8907,0.0010,407.69,0.35,413.7,42.2,138.10,28.58,24.62,36.38,0.04,-272.74,-272.74,-56,561,-924,23.6,23.4,1.5,23.7,24.5,2.2,5.73,2.32,-21.6,28.3
2012-05-08 01:19:00,0.0,1.8913,0.0011,407.62,0.39,431.2,45.1,138.10,28.60,24.62,36.38,0.04,-272.74,-272.74,-55,561,-924,23.7,23.4,1.5,23.7,24.5,2.2,5.73,2.42,-21.6,27.8
2012-05-08 01:20:00,0.0,1.8911,0.0011,407.65,0.37,408.6,45.0,138.10,28.61,24.62,36.38,0.04,-272.74,-272.74,-55,561,-925,23.7,23.3,1.5,23.7,24.5,2.2,5.73,2.24,-21.7,27.5
2012-05-08 01:21:00,0.0,1.8911,0.0011,407.76,0.41,415.3,38.0,138.10,28.61,24.62,36.38,0.04,-272.74,-272.74,-56,561,-925,23.7,23.3,1.5,23.7,24.4,2.2,5.73,2.42,-21.7,27.3
2012-05-08 01:22:00,0.0,1.8911,0.0010,407.85,0.30,396.1,34.6,138.11,28.61,24.62,36.37,0.04,-272.74,-272.74,-56,562,-925,23.7,23.2,1.4,23.7,24.3,2.1,5.73,2.26,-21.8,27.1
2012-05-08 01:23:00,0.0,1.8907,0.0009,407.75,0.40,395.6,40.3,138.11,28.61,24.62,36.38,0.04,-272.74,-272.74,-56,561,-925,23.7,23.1,1.4,23.7,24.2,2.0,5.73,2.43,-21.9,27.0
2012-05-08 01:24:00,0.0,1.8909,0.0009,407.76,0.35,390.4,37.8,138.11,28.60,24.62,36.38,0.04,-272.74,-272.74,-56,561,-925,23.7,23.1,1.4,23.7,24.2,2.0,5.73,2.24,-21.9,27.0
2012-05-08 01:25:00,0.0,1.8899,0.0011,407.72,0.38,381.4,40.5,138.11,28.60,24.63,36.38,0.04,-272.74,-272.74,-55,562,-925,23.7,23.1,1.4,23.7,24.3,2.0,5.73,2.45,-22.0,26.9
2012-05-08 01:26:00,0.0,1.8902,0.0010,407.68,0.34,378.0,39.5,138.12,28.59,24.62,36.38,0.04,-272.74,-272.74,-56,561,-925,23.6,23.1,1.4,23.6,24.3,2.0,5.73,2.23,-22.0,26.8
2012-05-08 01:27:00,0.0,1.8899,0.0011,407.70,0.40,369.0,40.8,138.12,28.58,24.62,36.38,0.04,-272.74,-272.74,-56,561,-925,23.7,23.2,1.4,23.6,24.3,2.0,5.73,2.45,-22.1,26.8
2012-05-08 01:28:00,0.0,1.8896,0.0010,407.62,0.35,366.8,40.3,138.12,28.57,24.62,36.38,0.04,-272.74,-272.74,-56,561,-925,23.6,23.2,1.4,23.6,24.4,2.0,5.73,2.23,-22.1,26.7
2012-05-08 01:29:00,0.0,1.8893,0.0012,407.67,0.30,359.7,40.0,138.12,28.56,24.62,36.38,0.04,-272.74,-272.74,-56,561,-925,23.6,23.2,1.4,23.6,24.3,2.0,5.73,2.43,-22.2,26.5
2012-05-08 01:30:00,0.0,1.8891,0.0010,407.79,0.39,355.7,32.3,138.12,28.55,24.62,36.37,0.04,-272.74,-272.74,-56,561,-925,23.6,23.2,1.4,23.6,24.4,2.0,5.73,2.27,-22.2,26.5
2012-05-08 01:31:00,0.0,1.8890,0.0009,407.80,0.34,341.9,40.4,138.13,28.54,24.62,36.37,0.04,-272.74,-272.74,-56,561,-925,23.6,23.2,1.4,23.5,24.4,2.0,5.73,2.38,-22.3,26.4
2012-05-08 01:32:00,0.0,1.8884,0.0011,407.74,0.39,336.4,40.4,138.13,28.53,24.62,36.37,0.04,-272.74,-272.74,-56,561,-925,23.6,23.2,1.4,23.5,24.4,2.0,5.73,2.32,-22.3,26.3
2012-05-08 01:33:00,0.0,1.8879,0.0010,407.73,0.37,334.1,40.4,138.13,28.51,24.62,36.37,0.04,-272.74,-272.74,-56,561,-924,23.6,23.2,1.4,23.5,24.4,2.0,5.73,2.33,-22.3,26.3
2012-05-08 01:34:00,0.0,1.8876,0.0012,407.71,0.33,326.3,44.2,138.13,28.50,24.62,36.37,0.04,-272.74,-272.74,-56,561,-925,23.5,23.2,1.3,23.5,24.4,2.0,5.73,2.35,-22.4,26.8
2012-05-08 01:35:00,0.0,1.8873,0.0011,407.71,0.33,332.6,41.6,138.13,28.49,24.63,36.37,0.04,-272.74,-272.74,-56,561,-924,23.5,23.2,1.3,23.5,24.4,2.0,5.73,2.38,-22.4,27.3
2012-05-08 01:36:00,0.0,1.8880,0.0011,407.69,0.34,332.0,37.0,138.12,28.49,24.62,36.37,0.04,-272.74,-272.74,-56,561,-924,23.5,23.3,1.3,23.5,24.4,2.0,5.73,2.29,-22.3,27.7
2012-05-08 01:37:00,0.0,1.8887,0.0010,407.73,0.33,344.8,39.6,138.12,28.48,24.62,36.37,0.04,-272.74,-272.74,-56,561,-924,23.5,23.3,1.3,23.5,24.4,2.0,5.73,2.30,-22.2,27.9
2012-05-08 01:38:00,0.0,1.8889,0.0010,407.74,0.36,360.7,32.9,138.12,28.49,24.62,36.38,0.04,-272.74,-272.74,-56,561,-924,23.5,23.4,1.3,23.5,24.5,2.1,5.73,2.33,-22.2,28.1
2012-05-08 01:39:00,0.0,1.8894,0.0009,407.80,0.35,363.3,37.9,138.11,28.49,24.62,36.37,0.04,-272.74,-272.74,-56,561,-924,23.5,23.4,1.4,23.5,24.5,2.1,5.73,2.35,-22.1,28.2
2012-05-08 01:40:00,0.0,1.8901,0.0011,407.76,0.34,374.7,39.6,138.11,28.50,24.62,36.38,0.04,-272.74,-272.74,-56,560,-924,23.5,23.3,1.4,23.5,24.4,2.0,5.73,2.35,-22.0,28.3
2012-05-08 01:41:00,0.0,1.8907,0.0010,407.74,0.35,381.3,38.1,138.11,28.51,24.62,36.38,0.04,-272.74,-272.74,-55,561,-924,23.5,23.3,1.4,23.6,24.4,2.1,5.73,2.36,-22.0,28.4
2012-05-08 01:42:00,0.0,1.8905,0.0009,407.70,0.36,396.1,43.6,138.11,28.52,24.62,36.38,0.04,-272.74,-272.74,-55,561,-924,23.5,23.4,1.4,23.6,24.5,2.1,5.73,2.35,-21.9,28.5
2012-05-08 01:43:00,0.0,1.8915,0.0012,407.90,0.39,399.9,35.1,138.10,28.53,24.62,36.38,0.04,-272.74,-272.74,-56,560,-924,23.5,23.5,1.5,23.6,24.5,2.2,5.73,2.33,-21.8,28.6
2012-05-08 01:44:00,0.0,1.8919,0.0009,408.02,0.34,403.0,44.3,138.10,28.55,24.62,36.38,0.04,-272.74,-272.74,-56,560,-924,23.6,23.5,1.5,23.7,24.6,2.2,5.73,2.31,-21.8,28.7
2012-05-08 01:45:00,0.0,1.8920,0.0011,408.02,0.34,409.4,38.4,138.10,28.56,24.62,36.38,0.04,-272.74,-272.74,-56,560,-924,23.6,23.3,1.4,23.7,24.4,2.1,5.73,2.28,-21.7,28.7
2012-05-08 01:46:00,0.0,1.8926,0.0014,408.07,0.40,423.5,42.6,138.10,28.58,24.62,36.38,0.04,-272.74,-272.74,-55,561,-924,23.6,23.2,1.4,23.7,24.3,2.1,5.73,2.32,-21.7,28.2
2012-05-08 01:47:00,0.0,1.8956,0.0012,407.78,0.40,411.0,42.3,138.10,28.59,24.62,36.38,0.04,-272.74,-272.74,-56,561,-925,23.6,22.5,1.0,23.7,23.6,1.7,5.73,2.42,-21.7,27.7
2012-05-08 01:48:00,0.0,1.8962,0.0011,407.47,0.32,414.0,41.0,138.10,28.60,24.62,36.39,0.04,-272.74,-272.74,-55,561,-925,23.6,21.9,0.6,23.7,23.0,1.3,5.73,2.23,-21.7,27.5
2012-05-08 01:49:00,0.0,1.8965,0.0010,407.39,0.35,395.8,39.3,138.11,28.60,24.62,36.38,0.04,-272.74,-272.74,-56,561,-925,23.6,21.7,0.4,23.7,22.7,1.1,5.73,2.45,-21.7,27.3
2012-05-08 01:50:00,0.0,1.8969,0.0011,407.33,0.38,397.5,40.2,138.11,28.60,24.62,36.38,0.04,-272.74,-272.74,-55,561,-925,23.6,21.5,0.3,23.7,22.5,1.0,5.73,2.23,-21.6,27.2
2012-05-08 01:51:00,0.0,1.8964,0.0009,407.39,0.39,394.1,36.6,138.11,28.59,24.62,36.38,0.04,-272.74,-272.74,-56,561,-925,23.6,21.5,0.3,23.7,22.5,1.0,5.73,2.45,-21.6,27.0
2012-05-08 01:52:00,0.0,1.8963,0.0008,407.44,0.32,376.3,44.7,138.11,28.59,24.62,36.38,0.04,-272.74,-272.74,-55,562,-925,23.6,21.5,0.3,23.6,22.5,1.0,5.73,2.23,-21.7,26.9
2012-05-08 01:53:00,0.0,1.8956,0.0011,407.32,0.37,387.6,46.2,138.12,28.59,24.62,36.38,0.04,-272.74,-272.74,-56,561,-925,23.6,21.5,0.3,23.6,22.5,1.0,5.73,2.44,-21.7,26.8
2012-05-08 01:54:00,0.0,1.8952,0.0010,407.20,0.34,374.2,35.5,138.12,28.58,24.62,36.38,0.04,-272.74,-272.74,-56,561,-925,23.6,21.4,0.3,23.6,22.5,0.9,5.73,2.26,-21.8,26.8
2012-05-08 01:55:00,0.0,1.8952,0.0011,407.00,0.38,353.7,45.1,138.12,28.57,24.62,36.38,0.04,-272.74,-272.74,-55,561,-925,23.6,21.3,0.2,23.6,22.3,0.9,5.73,2.40,-21.8,26.7
2012-05-08 01:56:00,0.0,1.8953,0.0011,406.83,0.34,358.1,34.7,138.12,28.56,24.62,36.38,0.04,-272.74,-272.74,-56,561,-925,23.6,21.2,0.1,23.6,22.3,0.8,5.73,2.32,-21.9,26.6
2012-05-08 01:57:00,0.0,1.8950,0.0011,406.61,0.35,352.3,40.0,138.12,28.55,24.62,36.38,0.04,-272.74,-272.74,-56,561,-926,23.6,21.1,0.0,23.5,22.2,0.7,5.73,2.33,-21.9,26.4
2012-05-08 01:58:00,0.0,1.8951,0.0011,406.46,0.42,336.8,32.0,138.13,28.53,24.62,36.38,0.04,-272.74,-272.74,-56,561,-926,23.6,21.0,-0.1,23.5,22.0,0.6,5.73,2.39,-21.9,26.4
2012-05-08 01:59:00,0.0,1.8950,0.0011,406.28,0.36,332.3,37.6,138.13,28.52,24.62,36.38,0.04,-272.74,-272.74,-56,561,-925,23.5,20.8,-0.2,23.5,21.8,0.5,5.73,2.26,-22.0,26.4
2012-05-08 02:00:00,0.0,1.8948,0.0010,406.30,0.36,335.0,42.7,138.13,28.51,24.62,36.37,0.04,-272.74,-272.74,-56,561,-925,23.5,20.7,-0.2,23.5,21.8,0.4,5.73,2.45,-22.0,26.4
2012-05-08 02:01:00,0.0,1.8945,0.0011,406.20,0.30,327.8,43.8,138.13,28.50,24.62,36.36,0.04,-272.74,-272.74,-56,561,-926,23.5,20.7,-0.3,23.5,21.7,0.4,5.73,2.23,-22.1,26.4
2012-05-08 02:02:00,0.0,1.8949,0.0011,406.01,0.37,318.0,34.1,138.13,28.49,24.62,36.37,0.04,-272.74,-272.74,-56,561,-925,23.5,20.8,-0.2,23.5,21.8,0.4,5.73,2.43,-22.1,27.1
2012-05-08 02:03:00,0.0,1.8940,0.0010,406.02,0.33,337.1,41.8,138.13,28.48,24.62,36.37,0.04,-272.74,-272.74,-56,561,-926,23.5,20.8,-0.2,23.5,21.8,0.4,5.73,2.33,-22.0,27.5
2012-05-08 02:04:00,0.0,1.8945,0.0009,406.24,0.28,344.1,44.4,138.12,28.48,24.62,36.37,0.04,-272.74,-272.74,-56,561,-926,23.5,20.8,-0.2,23.5,21.9,0.5,5.73,2.29,-22.0,27.8
2012-05-08 02:05:00,0.0,1.8972,0.0016,405.65,0.44,345.2,39.9,138.12,28.48,24.62,36.37,0.04,-272.74,-272.74,-56,560,-925,23.5,20.6,-0.4,23.5,21.7,0.4,5.73,2.32,-21.9,28.0
2012-05-08 02:06:00,0.0,1.9000,0.0010,405.17,0.41,354.7,42.4,138.12,28.48,24.62,36.38,0.04,-272.74,-272.74,-56,560,-925,23.5,20.2,-0.7,23.5,21.2,0.0,5.73,2.35,-21.9,28.1
2012-05-08 02:07:00,0.0,1.9012,0.0013,405.09,0.34,370.7,44.1,138.11,28.49,24.62,36.37,0.04,-272.74,-272.74,-56,560,-925,23.5,20.1,-0.7,23.6,21.1,-0.0,5.73,2.36,-21.8,28.2
2012-05-08 02:08:00,0.0,1.9028,0.0012,404.85,0.35,385.8,35.1,138.11,28.49,24.62,36.38,0.27,-270.80,-271.12,-56,560,-925,23.5,19.8,-0.9,23.6,20.7,-0.2,5.42,2.42,-26.3,28.3
2012-05-08 02:09:00,0.0,1.9031,0.0012,404.83,0.35,387.5,37.2,138.11,28.50,24.62,36.39,0.04,-272.74,-272.74,-56,560,-925,23.5,19.6,-1.0,23.6,20.6,-0.3,5.73,2.36,-21.7,28.4
2012-05-08 02:10:00,0.0,1.9038,0.0012,404.99,0.31,405.9,37.2,138.10,28.52,24.62,36.38,0.04,-272.74,-272.74,-56,560,-925,23.5,19.6,-1.0,23.6,20.5,-0.3,5.73,2.35,-21.6,28.5
2012-05-08 02:11:00,0.0,1.9046,0.0008,404.84,0.34,393.5,33.3,138.10,28.53,24.62,36.38,0.04,-272.74,-272.74,-55,561,-925,23.5,19.4,-1.2,23.6,20.3,-0.4,5.73,2.32,-21.5,28.6
2012-05-08 02:12:00,0.0,1.9055,0.0010,404.71,0.35,408.2,37.8,138.10,28.54,24.62,36.39,0.04,-272.74,-272.74,-55,561,-925,23.6,19.1,-1.3,23.7,20.0,-0.6,5.73,2.30,-21.5,28.7
2012-05-08 02:13:00,0.0,1.9058,0.0013,404.95,0.34,406.8,42.5,138.10,28.56,24.62,36.38,0.04,-272.74,-272.74,-55,561,-925,23.6,19.0,-1.4,23.7,19.8,-0.7,5.73,2.29,-21.4,28.7
2012-05-08 02:14:00,0.0,1.9065,0.0011,404.80,0.32,413.3,39.9,138.10,28.57,24.62,36.38,0.04,-272.74,-272.74,-56,561,-925,23.6,19.0,-1.4,23.7,19.9,-0.7,5.73,2.36,-21.4,28.1
2012-05-08 02:15:00,0.0,1.9072,0.0010,405.34,0.54,412.1,44.8,138.10,28.58,24.62,36.38,0.04,-272.74,-272.74,-55,561,-926,23.7,19.0,-1.3,23.7,19.9,-0.6,5.73,2.40,-21.4,27.7
2012-05-08 02:16:00,0.0,1.9074,0.0012,405.85,0.43,417.0,42.3,138.10,28.59,24.62,36.38,0.04,-272.74,-272.74,-56,561,-926,23.7,19.1,-1.3,23.7,20.0,-0.6,5.73,2.24,-21.5,27.4
2012-05-08 02:17:00,0.0,1.9071,0.0008,404.89,0.41,399.4,41.6,138.11,28.59,24.62,36.38,0.04,-272.74,-272.74,-55,561,-926,23.7,19.0,-1.3,23.7,19.9,-0.7,5.73,2.45,-21.5,27.1
2012-05-08 02:18:00,0.0,1.9062,0.0011,404.52,0.38,397.8,34.9,138.11,28.59,24.63,36.38,0.04,-272.74,-272.74,-56,561,-926,23.6,18.9,-1.4,23.7,19.8,-0.7,5.73,2.24,-21.6,26.9